USA 170                 
1 27875U 03040A   19257.81639872 -.00000279  00000-0  00000-0 0  9993
2 27875   5.3337  65.8367 0003922 102.4132  76.9020  1.00272183  8226
DELTA 4 R/B             
1 27876U 03040B   19256.68991301  .00004094  00000-0  34290-3 0  9995
2 27876  25.7158  88.4970 5473410  29.1344 352.7327  4.89750846  4568
IABS R/B                
1 27877U 03040C   19257.85585717 -.00000310  00000-0  00000+0 0  9992
2 27877  11.4507  29.9694 0010450 262.1561  97.7853  1.00749426  1073